GW4049 Weather Reports


Display with metric or nautical units.
time (UTC)temp
F
wind
direction
speed
MPH
gust
MPH
rain 1hr
in
rain 24hr
in
rain mn
in
humidity
%
barometer
mb
20260508002424 48 8 2.0 4.0 0.00 0.09 0.09 47 1021.9
20260508001920 48 266 1.0 6.0 0.00 0.09 0.09 47 1021.9
20260508001416 49 321 4.0 7.0 0.00 0.09 0.09 45 1022.1
20260508000913 49 163 4.0 9.0 0.00 0.09 0.09 45 1022.1
20260508000405 48 278 0.0 0.0 0.00 0.09 0.09 48 1022.3
20260507235901 48 279 2.0 6.0 0.00 0.09 0.09 47 1022.3
20260507235358 48 265 2.0 4.0 0.00 0.09 0.09 46 1022.3
20260507234855 47 259 2.0 13.0 0.00 0.09 0.09 47 1022.1
20260507234352 48 281 1.0 10.0 0.00 0.09 0.09 46 1022.1
20260507233848 48 331 8.0 14.0 0.00 0.09 0.09 44 1022.1
20260507233345 49 293 5.0 8.0 0.00 0.09 0.09 43 1022.0
20260507232843 50 247 7.0 14.0 0.00 0.09 0.09 42 1022.0
20260507232339 51 182 8.0 14.0 0.00 0.09 0.09 40 1021.9
20260507231837 52 267 6.0 9.0 0.00 0.09 0.09 39 1022.0
20260507231333 51 271 5.0 10.0 0.00 0.09 0.09 40 1022.0
20260507230829 51 278 13.0 17.0 0.00 0.09 0.09 40 1022.1
20260507230322 51 316 9.0 11.0 0.00 0.09 0.09 38 1021.9
20260507225821 52 217 11.0 15.0 0.00 0.09 0.09 38 1022.0
20260507225317 51 306 6.0 7.0 0.00 0.09 0.09 39 1022.3
20260507224814 51 349 7.0 8.0 0.00 0.09 0.09 39 1022.0
20260507224310 50 323 4.0 10.0 0.00 0.09 0.09 40 1022.0
20260507223807 50 328 3.0 9.0 0.00 0.09 0.09 41 1022.0
20260507223303 50 324 2.0 10.0 0.00 0.09 0.09 42 1022.1
20260507222801 50 325 3.0 9.0 0.00 0.09 0.09 41 1022.1
20260507222256 51 239 2.0 8.0 0.00 0.09 0.09 40 1022.1
20260507221754 51 280 11.0 21.0 0.00 0.09 0.09 40 1022.1
20260507221250 51 41 4.0 10.0 0.00 0.09 0.09 41 1022.4
20260507220746 50 310 2.0 6.0 0.00 0.09 0.09 40 1022.4
20260507220245 50 207 4.0 10.0 0.00 0.09 0.09 41 1022.5
20260507215741 49 317 4.0 8.0 0.00 0.09 0.09 41 1022.1
20260507215238 50 348 6.0 9.0 0.00 0.09 0.09 40 1022.3
20260507214735 50 307 5.0 15.0 0.00 0.09 0.09 39 1022.5
20260507214232 49 279 5.0 15.0 0.00 0.09 0.09 41 1022.5
20260507213727 49 295 6.0 10.0 0.00 0.09 0.09 41 1022.7
20260507213225 49 299 5.0 8.0 0.00 0.09 0.09 40 1022.7
20260507212721 49 233 7.0 15.0 0.00 0.09 0.09 39 1022.7
20260507212218 50 349 3.0 14.0 0.00 0.09 0.09 42 1022.8
20260507211715 50 277 8.0 10.0 0.00 0.09 0.09 40 1022.9
20260507211210 50 336 6.0 11.0 0.00 0.09 0.09 39 1023.1
20260507210708 50 305 2.0 10.0 0.00 0.09 0.09 37 1023.2
20260507210205 50 237 12.0 15.0 0.00 0.09 0.09 38 1023.2
20260507205701 50 261 7.0 14.0 0.00 0.09 0.09 39 1023.1
20260507205158 51 316 6.0 14.0 0.00 0.09 0.09 40 1023.3
20260507204654 51 330 8.0 14.0 0.00 0.09 0.09 39 1023.1
20260507204152 51 351 7.0 13.0 0.00 0.09 0.09 40 1022.9
20260507203650 49 230 5.0 16.0 0.00 0.09 0.09 40 1023.2
20260507203147 50 328 13.0 16.0 0.00 0.09 0.09 39 1023.2
20260507202642 50 8 9.0 18.0 0.00 0.09 0.09 40 1022.9
20260507202139 50 354 6.0 16.0 0.00 0.09 0.09 40 1023.2
20260507201634 51 0 9.0 15.0 0.00 0.09 0.09 41 1023.2
20260507201131 50 332 3.0 9.0 0.00 0.09 0.09 40 1023.3
20260507200627 50 352 3.0 11.0 0.00 0.09 0.09 43 1023.3
20260507200123 50 306 4.0 6.0 0.00 0.09 0.09 42 1023.2
20260507195620 49 251 2.0 10.0 0.00 0.09 0.09 43 1023.2
20260507195117 50 259 3.0 13.0 0.00 0.09 0.09 43 1023.1
20260507194614 51 3 4.0 13.0 0.00 0.09 0.09 44 1023.3
20260507194109 49 257 2.0 10.0 0.00 0.09 0.09 45 1023.5
20260507193607 48 240 6.0 15.0 0.00 0.09 0.09 44 1023.5
20260507193103 48 265 8.0 15.0 0.00 0.09 0.09 45 1023.3
20260507192600 48 264 9.0 15.0 0.00 0.09 0.09 44 1023.5
20260507192057 48 282 2.0 17.0 0.00 0.09 0.09 44 1023.6
20260507191552 48 280 5.0 13.0 0.00 0.09 0.09 44 1023.2
20260507191050 49 217 11.0 16.0 0.00 0.09 0.09 46 1023.5
20260507190547 49 281 4.0 13.0 0.00 0.09 0.09 49 1023.5
20260507190045 48 352 7.0 10.0 0.05 0.09 0.09 48 1023.1
20260507185543 48 333 6.0 13.0 0.05 0.09 0.09 46 1023.7
20260507185039 48 265 6.0 11.0 0.00 0.08 0.08 48 1023.7
20260507184538 48 261 4.0 15.0 0.00 0.08 0.08 48 1023.9
20260507184036 47 235 7.0 11.0 0.07 0.08 0.08 47 1023.9
20260507183531 48 265 7.0 10.0 0.00 0.07 0.07 47 1024.0
20260507183029 46 215 7.0 18.0 0.00 0.07 0.07 50 1024.0
20260507182525 46 235 7.0 13.0 0.05 0.07 0.07 52 1024.0
20260507182021 47 261 8.0 9.0 0.05 0.07 0.07 51 1024.0
20260507181518 47 265 11.0 13.0 0.00 0.06 0.06 51 1024.0
20260507181014 47 266 11.0 18.0 0.07 0.06 0.06 49 1024.0
20260507180510 48 305 10.0 16.0 0.12 0.06 0.06 49 1023.9
20260507180007 48 232 4.0 11.0 0.05 0.05 0.05 50 1023.6
20260507175503 48 283 5.0 11.0 0.07 0.04 0.04 49 1023.5
20260507175001 47 299 4.0 6.0 0.07 0.03 0.03 54 1023.7
20260507174458 43 252 0.0 2.0 0.07 0.03 0.03 62 1023.9
20260507173956 42 275 0.0 1.0 0.00 0.02 0.02 63 1023.9
20260507173453 42 324 5.0 7.0 0.00 0.02 0.02 61 1024.1
20260507172950 43 262 0.0 4.0 0.00 0.02 0.02 59 1024.0
20260507172446 42 235 5.0 10.0 0.05 0.02 0.02 57 1023.7
20260507171942 42 218 4.0 10.0 0.05 0.02 0.02 60 1024.0
20260507171438 42 276 5.0 10.0 0.00 0.01 0.01 56 1024.1
20260507170936 41 250 3.0 10.0 0.00 0.01 0.01 60 1024.0
20260507170432 40 141 5.0 6.0 0.00 0.01 0.01 65 1023.9
20260507165929 40 172 4.0 7.0 0.07 0.01 0.01 65 1024.0
20260507165425 40 186 4.0 7.0 0.07 0.01 0.01 62 1023.9
20260507164921 40 232 2.0 7.0 0.00 0.00 0.00 66 1023.7
20260507164418 39 206 3.0 4.0 0.00 0.00 0.00 67 1024.1
20260507163915 38 223 1.0 2.0 0.00 0.00 0.00 69 1023.9
20260507163412 39 217 2.0 3.0 0.00 0.00 0.00 71 1024.0
20260507162909 38 211 2.0 3.0 0.00 0.00 0.00 73 1024.1
20260507162404 39 225 2.0 3.0 0.00 0.00 0.00 67 1024.3
20260507161902 39 216 3.0 6.0 0.00 0.00 0.00 62 1024.3
20260507161358 39 195 6.0 9.0 0.00 0.00 0.00 62 1024.6
20260507160855 39 239 4.0 13.0 0.00 0.00 0.00 62 1024.4
20260507160350 39 220 2.0 3.0 0.00 0.00 0.00 71 1024.9
20260507155847 39 209 2.0 8.0 0.00 0.00 0.00 63 1024.9
20260507155342 39 251 3.0 13.0 0.00 0.00 0.00 62 1024.6
20260507154839 39 205 8.0 15.0 0.00 0.00 0.00 61 1024.3
20260507154337 38 231 5.0 13.0 0.00 0.00 0.00 66 1024.6
20260507153833 39 229 6.0 8.0 0.00 0.00 0.00 65 1024.8
20260507153330 39 216 5.0 8.0 0.00 0.00 0.00 65 1024.8
20260507152826 39 168 6.0 9.0 0.00 0.00 0.00 61 1024.4
20260507152322 38 272 3.0 8.0 0.00 0.00 0.00 64 1024.4
20260507151818 39 222 6.0 7.0 0.00 0.00 0.00 62 1024.8
20260507151315 39 209 6.0 10.0 0.00 0.00 0.00 64 1024.6
20260507150812 39 315 9.0 19.0 0.00 0.00 0.00 61 1024.6
20260507150308 39 291 5.0 21.0 0.00 0.00 0.00 61 1024.6
20260507145804 40 241 12.0 18.0 0.00 0.00 0.00 59 1024.6
20260507145301 40 265 8.0 11.0 0.00 0.00 0.00 60 1024.6
20260507144758 40 282 10.0 17.0 0.00 0.00 0.00 59 1024.4
20260507144255 41 228 7.0 11.0 0.00 0.00 0.00 62 1024.3
20260507143752 42 341 6.0 15.0 0.00 0.00 0.00 60 1024.4
20260507143249 42 279 4.0 18.0 0.00 0.00 0.00 59 1024.1
20260507142745 41 324 7.0 16.0 0.00 0.00 0.00 60 1024.0
20260507142242 41 259 10.0 19.0 0.00 0.00 0.00 58 1024.4
20260507141739 41 237 5.0 10.0 0.00 0.00 0.00 58 1024.3
20260507141236 41 30 9.0 11.0 0.00 0.00 0.00 59 1024.3
20260507140731 40 276 6.0 14.0 0.00 0.00 0.00 60 1024.3
20260507140229 40 244 11.0 15.0 0.00 0.00 0.00 61 1024.3
20260507135726 40 277 1.0 6.0 0.00 0.00 0.00 63 1024.3
20260507135223 40 338 3.0 8.0 0.00 0.00 0.00 62 1024.4
20260507134719 39 257 4.0 10.0 0.00 0.00 0.00 62 1024.3
20260507134216 39 290 1.0 3.0 0.00 0.00 0.00 60 1024.1
20260507133712 38 269 3.0 6.0 0.00 0.00 0.00 62 1024.1
20260507133209 38 315 1.0 8.0 0.00 0.00 0.00 63 1024.1
20260507132707 38 343 3.0 7.0 0.00 0.00 0.00 62 1024.1
20260507132203 38 241 2.0 10.0 0.00 0.00 0.00 60 1024.0
20260507131700 37 268 2.0 8.0 0.00 0.00 0.00 61 1023.6
20260507131157 37 229 8.0 19.0 0.00 0.00 0.00 61 1023.7
20260507130653 36 205 7.0 13.0 0.00 0.00 0.00 61 1023.7
20260507130151 36 282 6.0 14.0 0.00 0.00 0.00 60 1024.1
20260507125650 36 240 2.0 8.0 0.00 0.00 0.00 61 1023.9
20260507125147 35 246 4.0 17.0 0.00 0.00 0.00 61 1024.1
20260507124643 35 210 6.0 13.0 0.00 0.00 0.00 60 1024.1
20260507124141 35 237 9.0 17.0 0.00 0.00 0.00 61 1023.7
20260507123639 34 230 7.0 15.0 0.00 0.00 0.00 62 1023.9
20260507123136 34 237 8.0 11.0 0.00 0.00 0.00 63 1023.7
20260507122631 33 244 6.0 11.0 0.00 0.00 0.00 64 1023.5
20260507122127 32 254 4.0 8.0 0.00 0.00 0.00 68 1024.1
20260507121623 32 257 1.0 7.0 0.00 0.00 0.00 68 1024.0
20260507121119 34 260 2.0 7.0 0.00 0.00 0.00 68 1023.9
20260507120616 32 226 4.0 10.0 0.00 0.00 0.00 66 1023.9
20260507120112 30 217 5.0 6.0 0.00 0.00 0.00 76 1024.1
20260507115608 30 234 1.0 3.0 0.00 0.00 0.00 74 1023.6
20260507115104 30 218 2.0 3.0 0.00 0.00 0.00 71 1023.9
20260507114601 31 255 2.0 8.0 0.00 0.00 0.00 67 1023.9
20260507114058 31 220 3.0 6.0 0.00 0.00 0.00 66 1023.6
20260507113555 30 250 5.0 6.0 0.00 0.00 0.00 71 1023.7
20260507113052 29 224 4.0 4.0 0.00 0.00 0.00 77 1023.7
20260507112550 29 225 2.0 3.0 0.00 0.00 0.00 79 1024.1
20260507112046 32 253 0.0 2.0 0.00 0.00 0.00 71 1023.9
20260507111543 32 313 2.0 8.0 0.00 0.00 0.00 61 1024.0
20260507111040 32 261 1.0 10.0 0.00 0.00 0.00 59 1024.0
20260507110537 32 249 3.0 4.0 0.00 0.00 0.00 66 1024.3
20260507110033 31 221 5.0 7.0 0.00 0.00 0.00 66 1023.7
20260507105530 33 190 4.0 7.0 0.00 0.00 0.00 62 1023.9
20260507105026 33 225 2.0 4.0 0.00 0.00 0.00 63 1023.9
20260507104524 33 174 5.0 9.0 0.00 0.00 0.00 59 1024.0
20260507104020 32 289 7.0 13.0 0.00 0.00 0.00 62 1023.9
20260507103516 32 233 4.0 8.0 0.00 0.00 0.00 63 1023.7
20260507103013 32 269 1.0 9.0 0.00 0.00 0.00 62 1023.7
20260507102510 32 276 7.0 13.0 0.00 0.00 0.00 62 1023.7
20260507102007 32 261 6.0 11.0 0.00 0.00 0.00 61 1023.3
20260507101501 32 277 4.0 9.0 0.00 0.00 0.00 61 1023.6
20260507100958 32 233 5.0 6.0 0.00 0.00 0.00 61 1023.3
20260507100455 32 239 4.0 10.0 0.00 0.00 0.00 62 1023.3
20260507095953 31 206 2.0 8.0 0.00 0.00 0.00 66 1023.5
20260507095451 30 157 5.0 6.0 0.00 0.00 0.00 76 1023.3
20260507094947 29 289 6.0 9.0 0.00 0.00 0.00 64 1023.1
20260507094443 32 200 3.0 6.0 0.00 0.00 0.00 66 1023.1
20260507093940 33 224 6.0 7.0 0.00 0.00 0.00 66 1023.5
20260507093438 31 200 7.0 11.0 0.00 0.00 0.00 57 1023.5
20260507092936 28 212 3.0 4.0 0.00 0.00 0.00 75 1023.6
20260507092432 29 187 3.0 3.0 0.00 0.00 0.00 71 1023.3
20260507091929 30 228 1.0 7.0 0.00 0.00 0.00 72 1023.6
20260507091426 32 31 3.0 6.0 0.00 0.00 0.00 62 1023.7
20260507090921 33 200 3.0 7.0 0.00 0.00 0.00 55 1023.5
20260507090418 33 238 2.0 4.0 0.00 0.00 0.00 56 1023.7
20260507085915 31 241 1.0 6.0 0.00 0.00 0.00 61 1023.6
20260507085412 32 253 3.0 7.0 0.00 0.00 0.00 60 1023.9
20260507084909 33 290 7.0 14.0 0.00 0.00 0.00 51 1023.6
20260507084406 33 255 2.0 10.0 0.00 0.00 0.00 58 1023.5
20260507083903 32 246 4.0 7.0 0.00 0.00 0.00 57 1023.5
20260507083359 31 260 5.0 10.0 0.00 0.00 0.00 54 1023.3
20260507082855 32 301 4.0 7.0 0.00 0.00 0.00 57 1023.6
20260507082351 32 225 4.0 6.0 0.00 0.00 0.00 70 1023.7
20260507081848 31 230 4.0 7.0 0.00 0.00 0.00 63 1023.5
20260507081344 33 249 2.0 9.0 0.00 0.00 0.00 56 1023.7
20260507080842 31 215 2.0 7.0 0.00 0.00 0.00 55 1023.5
20260507080337 30 192 9.0 13.0 0.00 0.00 0.00 57 1024.0
20260507075833 31 22 12.0 19.0 0.00 0.00 0.00 56 1023.7
20260507075329 32 264 3.0 9.0 0.00 0.00 0.00 56 1023.1
20260507074826 31 226 8.0 10.0 0.00 0.00 0.00 51 1023.1
20260507074323 32 218 11.0 16.0 0.00 0.00 0.00 46 1023.2
20260507073820 32 227 4.0 16.0 0.00 0.00 0.00 48 1023.1
20260507073317 31 288 5.0 15.0 0.00 0.00 0.00 51 1023.2
20260507072814 31 195 7.0 21.0 0.00 0.00 0.00 49 1023.2
20260507072312 31 262 9.0 14.0 0.00 0.00 0.00 50 1023.3
20260507071809 30 231 3.0 7.0 0.00 0.00 0.00 51 1023.3
20260507071305 30 249 6.0 10.0 0.00 0.00 0.00 53 1023.5
20260507070802 30 220 4.0 7.0 0.00 0.00 0.00 49 1023.5
20260507070259 30 227 4.0 11.0 0.00 0.00 0.00 54 1023.3
20260507065756 31 228 3.0 9.0 0.00 0.00 0.00 50 1023.6
20260507065252 28 228 7.0 8.0 0.00 0.00 0.00 54 1023.3
20260507064750 29 41 1.0 6.0 0.00 0.00 0.00 55 1023.3
20260507064249 30 270 1.0 6.0 0.00 0.00 0.00 51 1023.2
20260507063746 28 259 5.0 7.0 0.00 0.00 0.00 54 1023.6
20260507063242 29 200 3.0 13.0 0.00 0.00 0.00 56 1023.3
20260507062739 29 239 7.0 10.0 0.00 0.00 0.00 56 1023.3
20260507062237 29 230 3.0 10.0 0.00 0.00 0.00 58 1023.2
20260507061735 29 265 7.0 8.0 0.00 0.00 0.00 55 1023.2
20260507061232 29 243 9.0 14.0 0.00 0.00 0.00 57 1023.1
20260507060730 29 264 8.0 17.0 0.00 0.00 0.00 58 1022.9
20260507060227 28 253 10.0 15.0 0.00 0.00 0.00 56 1022.9
20260507055723 29 235 8.0 19.0 0.00 0.00 0.00 56 1022.8
20260507055218 28 129 10.0 21.0 0.00 0.00 0.00 59 1022.9
20260507054714 29 268 3.0 15.0 0.00 0.00 0.00 57 1023.1
20260507054212 29 284 9.0 13.0 0.00 0.00 0.00 54 1022.7
20260507053709 29 292 8.0 14.0 0.00 0.00 0.00 55 1022.8
20260507053207 29 222 12.0 19.0 0.00 0.00 0.00 56 1022.7
20260507052706 29 174 8.0 16.0 0.00 0.00 0.00 58 1022.9
20260507052201 28 248 13.0 22.0 0.00 0.00 0.00 59 1022.7
20260507051700 28 293 3.0 17.0 0.00 0.00 0.00 60 1022.8
20260507051155 28 192 11.0 21.0 0.00 0.00 0.00 57 1022.7
20260507050652 28 277 15.0 27.0 0.00 0.00 0.00 57 1022.8
20260507050149 28 288 8.0 21.0 0.00 0.00 0.00 59 1022.5
20260507045646 28 347 6.0 23.0 0.00 0.00 0.00 59 1022.5
20260507045143 28 213 9.0 24.0 0.00 0.00 0.00 59 1022.4
20260507044640 28 237 18.0 23.0 0.00 0.00 0.00 60 1022.4
20260507044137 28 192 20.0 32.0 0.00 0.00 0.00 58 1022.7
20260507043633 28 270 5.0 19.0 0.00 0.00 0.00 64 1022.1
20260507043130 28 327 7.0 22.0 0.00 0.00 0.00 62 1022.0
20260507042626 28 348 8.0 17.0 0.00 0.00 0.00 61 1022.3
20260507042121 27 64 7.0 11.0 0.00 0.00 0.00 62 1021.9
20260507041618 27 220 6.0 9.0 0.00 0.00 0.00 65 1022.0
20260507041115 28 235 8.0 13.0 0.00 0.00 0.00 64 1022.0
20260507040612 28 249 7.0 15.0 0.00 0.00 0.00 62 1021.9
20260507040108 27 321 1.0 15.0 0.00 0.00 0.00 69 1022.0
20260507035604 27 273 3.0 15.0 0.00 0.00 0.00 68 1021.6
20260507035100 28 248 11.0 18.0 0.00 0.00 0.00 65 1022.0
20260507034557 27 218 11.0 15.0 0.00 0.00 0.00 70 1021.8
20260507034055 27 288 8.0 16.0 0.00 0.00 0.00 70 1021.5
20260507033553 27 239 6.0 17.0 0.00 0.00 0.00 69 1021.9
20260507033050 27 312 8.0 17.0 0.00 0.00 0.00 71 1022.0
20260507032547 28 187 14.0 22.0 0.00 0.00 0.00 68 1021.8
20260507032043 28 284 13.0 24.0 0.00 0.00 0.00 69 1021.8
20260507031540 27 247 6.0 16.0 0.00 0.00 0.00 72 1021.8
20260507031037 27 250 15.0 21.0 0.00 0.00 0.00 73 1022.0
20260507030534 27 235 6.0 24.0 0.00 0.00 0.00 74 1021.5
20260507030032 27 211 9.0 18.0 0.00 0.00 0.00 74 1021.8
20260507025528 27 247 13.0 21.0 0.00 0.00 0.00 75 1021.5
20260507025026 27 264 12.0 17.0 0.00 0.00 0.00 75 1021.6
20260507024523 28 274 4.0 15.0 0.00 0.00 0.00 75 1021.5
20260507024020 27 194 8.0 15.0 0.00 0.00 0.00 77 1021.5
20260507023516 27 353 6.0 14.0 0.00 0.00 0.00 78 1021.4
20260507023014 26 85 8.0 13.0 0.00 0.00 0.00 80 1021.4
20260507022510 26 239 2.0 3.0 0.00 0.00 0.00 82 1021.5
20260507022006 27 264 3.0 9.0 0.00 0.00 0.00 84 1021.6
20260507021502 27 249 0.0 10.0 0.00 0.00 0.00 82 1021.2
20260507020959 27 266 1.0 8.0 0.00 0.00 0.00 83 1021.2
20260507020456 27 231 3.0 16.0 0.00 0.00 0.00 79 1021.5
20260507015952 27 300 3.0 8.0 0.00 0.00 0.00 85 1021.5
20260507015451 27 275 3.0 9.0 0.00 0.00 0.00 79 1021.5
20260507014948 27 287 1.0 9.0 0.00 0.00 0.00 82 1021.2
20260507014444 27 313 7.0 9.0 0.00 0.00 0.00 86 1021.5
20260507013940 27 257 1.0 3.0 0.00 0.00 0.00 84 1021.8
20260507013437 28 260 2.0 2.0 0.00 0.00 0.00 84 1021.5
20260507012935 29 243 2.0 8.0 0.00 0.00 0.00 83 1021.4
20260507012431 29 276 1.0 7.0 0.00 0.00 0.00 85 1021.5
20260507011922 29 260 2.0 8.0 0.00 0.00 0.00 85 1021.4
20260507011419 29 259 2.0 6.0 0.00 0.00 0.00 84 1021.4
20260507010913 29 269 2.0 8.0 0.00 0.00 0.00 86 1021.5
20260507010409 30 328 5.0 10.0 0.00 0.00 0.00 84 1021.4
20260507005906 29 253 0.0 10.0 0.00 0.00 0.00 84 1021.4
20260507005403 30 246 5.0 8.0 0.00 0.00 0.00 83 1021.4
20260507004859 30 338 5.0 9.0 0.00 0.00 0.00 87 1021.4
20260507004356 30 354 9.0 11.0 0.00 0.00 0.00 84 1021.4
20260507003854 30 290 2.0 6.0 0.00 0.00 0.00 84 1021.2
20260507003349 30 251 1.0 8.0 0.00 0.00 0.00 84 1021.5
20260507002844 30 290 4.0 10.0 0.00 0.00 0.00 83 1021.4